Voltar ao catálogo

STARLINK-5540

AtivoComunicaçõesSSO
NORAD 56340·PAYLOAD·🇺🇸 United States

Lançado Apr 27, 2023 de Vandenberg Space Force Base

Loading…

Próximas Passagens (próximas 24 horas)

TLE

AtualizadoSource: CelesTrak SupGP

Época: Sep 14, 2026, 20:59 UTC

1 56340C 23058Z   26257.87479167  .00064127  00000+0  19894-2 0  2576
2 56340  97.2849 254.7683 0001876  95.1731  27.0850 15.33426895    11

Acompanhe STARLINK-5540 em tempo real com AllMySat

Download on the App Store